User: anonymous   Login
Location: Unspecified
(0.0000°N, 0.0000°E)
Time: 18:57:10
(UTC+00:00)
Language:

HODOYOSHI 1 - Orbit

View from above orbital plane
View from above orbital plane
View from above satellite
View from above satellite

Ground track
Ground track

The orbit data is extracted from the following two-line orbital elements,

1 40299U 14070B   17084.90514441 +.00001027 +00000-0 +47829-4 0  9998
2 40299 097.4064 168.9061 0014362 031.1334 080.6962 15.22074111132278
Epoch (UTC): 25 March 2017 21:43:24
Eccentricity: 0.0014362
inclination: 97.4064°
perigee height: 490 km
apogee height: 509 km
right ascension of ascending node: 168.9061°
argument of perigee: 31.1334°
revolutions per day: 15.22074111
mean anomaly at epoch: 80.6962°
orbit number at epoch: 13227

The dashed part of the orbit path shows where the satellite is in the earth's shadow,  

DLR